Weather History for Sarasota, FL

Change the Weather History Date:

Saturday, January 2, 2010

  Actual Average Record
Temperature  
Mean Temperature 51 °F 61 °F  
Max Temperature 59 °F 71 °F 84 °F (1973)
Min Temperature 43 °F 52 °F 28 °F (1918)
Degree Days  
Heating Degree Days 14 5  
Month to date heating degree days 19 10  
Since 1 July heating degree days 156 165  
Cooling Degree Days 0 2  
Month to date cooling degree days 0 4  
Year to date cooling degree days 0 4  
Growing Degree Days 1 (Base 50)    
Moisture  
Dew Point 32 °F    
Average Humidity 54    
Maximum Humidity 77    
Minimum Humidity 26    
Precipitation  
Precipitation 0.00 in 0.12 in 1.56 in (1986)
Month to date precipitation 1.19 0.24  
Year to date precipitation 1.19 0.24  
Sea Level Pressure  
Sea Level Pressure 30.15 in    
Wind  
Wind Speed 8 mph (North)    
Max Wind Speed 17 mph    
Max Gust Speed 23 mph    
Visibility 10 miles    
Events      
T = Trace of Precipitation, MM = Missing Value Source: NWS Daily Summary

Daily Weather History Graph

Daily Weather History Graph

Search for Another Location

Airport:

Trip Planner

Search our weather history database for the weather conditions in past years. The results will help you decide how hot, cold, wet, or windy it might be!

Date:

Astronomy

Jan. 02, 2010 Rise Set
Actual Time 7:20 AM EST 5:48 PM EST
Civil Twilight 6:55 AM EST 6:13 PM EST
Nautical Twilight 6:26 AM EST 6:42 PM EST
Astronomical Twilight 5:57 AM EST 7:11 PM EST
Moon 8:13 PM EST (1/2) 8:54 AM EST (1/2)
Length of Visible Light 11h 18m
Length of Day
10h 27m
Waning Gibbous, 95% of the Moon is Illuminated
Jan 2
Waning Gibbous
Jan 7
Last Quarter
Jan 15
New
Jan 23
First Quarter
Jan 30
Full

Hourly Weather History & Observations

Time (EST) Temp. Windchill Dew Point Humidity Pressure Visibility Wind Dir Wind Speed Gust Speed Precip Events Conditions
12:53 AM 50.0 °F - 41.0 °F 71% 30.12 in 10.0 mi North 13.8 mph 19.6 mph N/A   Partly Cloudy
1:53 AM 48.9 °F - 39.0 °F 69% 30.13 in 10.0 mi NNE 9.2 mph 18.4 mph N/A   Clear
2:53 AM 46.9 °F - 37.9 °F 71% 30.13 in 10.0 mi NNE 5.8 mph - N/A   Clear
3:53 AM 46.9 °F - 35.1 °F 63% 30.13 in 10.0 mi NNE 8.1 mph - N/A   Clear
4:53 AM 46.0 °F 41.4 °F 34.0 °F 63% 30.12 in 10.0 mi NNE 9.2 mph - N/A   Clear
5:53 AM 44.1 °F 41.5 °F 34.0 °F 68% 30.15 in 10.0 mi NE 4.6 mph - N/A   Clear
6:53 AM 43.0 °F 40.3 °F 34.0 °F 71% 30.15 in 10.0 mi NNE 4.6 mph - N/A   Clear
7:53 AM 44.1 °F 39.5 °F 30.9 °F 60% 30.17 in 10.0 mi NNE 8.1 mph - N/A   Clear
8:53 AM 46.9 °F - 30.0 °F 52% 30.19 in 10.0 mi NNE 9.2 mph - N/A   Clear
9:53 AM 50.0 °F - 30.0 °F 46% 30.19 in 10.0 mi NNE 6.9 mph 16.1 mph N/A   Clear
10:53 AM 53.1 °F - 27.0 °F 37% 30.21 in 10.0 mi NNE 8.1 mph 17.3 mph N/A   Clear
11:53 AM 55.9 °F - 25.0 °F 30% 30.18 in 10.0 mi NNE 16.1 mph 20.7 mph N/A   Clear
12:53 PM 57.0 °F - 25.0 °F 29% 30.15 in 10.0 mi NNE 13.8 mph 18.4 mph N/A   Clear
1:53 PM 57.9 °F - 28.9 °F 33% 30.13 in 10.0 mi North 9.2 mph 16.1 mph N/A   Clear
2:53 PM 59.0 °F - 24.1 °F 26% 30.13 in 10.0 mi North 9.2 mph - N/A   Clear
3:53 PM 57.0 °F - 25.0 °F 29% 30.13 in 10.0 mi North 9.2 mph - N/A   Clear
4:53 PM 55.9 °F - 30.0 °F 37% 30.13 in 10.0 mi NNW 10.4 mph - N/A   Clear
5:53 PM 51.1 °F - 28.9 °F 43% 30.14 in 10.0 mi NW 10.4 mph - N/A   Clear
6:53 PM 48.0 °F - 33.1 °F 56% 30.14 in 10.0 mi NW 6.9 mph - N/A   Clear
7:53 PM 46.0 °F 43.1 °F 33.1 °F 61% 30.15 in 10.0 mi NNW 5.8 mph - N/A   Clear
9:53 PM 44.1 °F - 35.1 °F 71% 30.16 in 10.0 mi Calm Calm - N/A   Clear
10:53 PM 44.1 °F - 36.0 °F 73% 30.17 in 10.0 mi Calm Calm - N/A   Clear
11:53 PM 45.0 °F - 37.0 °F 74% 30.15 in 10.0 mi Calm Calm - N/A   Clear